When you browse on this site, cookies collect data to enhance your experience and personalize the content and advertising you see.
Visit our Privacy Policy to learn more. By continuing to use the site, you agree to this use of cookies and data.
  • en France
  • Liste des pays
  • À 7 jours
  • Température de l'eau
  • Carte satellitaire
  • Carte météo
  • Widgets météo
  • user-avatar
    Se connecter

    Météo par heure à Villavicencio

    Ce jour, 18 Novembre, Dimanche

    Heure Température Précipitation Vent Pression Humidité
    00:00 +25°C° 1.2 mm 1 m/s 717 mmHg 94%
    01:00 +25°C° 1.2 mm 1 m/s 716 mmHg 93%
    02:00 +25°C° 0.5 mm 1 m/s 716 mmHg 93%
    03:00 +25°C° 0.5 mm 1 m/s 716 mmHg 93%
    04:00 +25°C° 0.5 mm 1 m/s 716 mmHg 93%
    05:00 +23°C° 0.3 mm 0 m/s 716 mmHg 92%
    06:00 +23°C° 0.3 mm 0 m/s 717 mmHg 91%
    07:00 +23°C° 0.3 mm 0 m/s 717 mmHg 90%
    08:00 +26°C° 0.3 mm 1 m/s 717 mmHg 87%
    09:00 +27°C° 0.3 mm 1 m/s 718 mmHg 83%
    10:00 +28°C° 0.3 mm 1 m/s 718 mmHg 80%
    11:00 +29°C° 0.4 mm 1 m/s 717 mmHg 79%
    12:00 +29°C° 0.4 mm 1 m/s 717 mmHg 77%
    13:00 +29°C° 0.4 mm 2 m/s 716 mmHg 76%
    14:00 +29°C° 0.4 mm 1 m/s 715 mmHg 77%
    15:00 +29°C° 0.4 mm 1 m/s 715 mmHg 79%
    16:00 +29°C° 0.4 mm 1 m/s 714 mmHg 80%
    17:00 +28°C° 0.7 mm 1 m/s 715 mmHg 84%
    18:00 +27°C° 0.7 mm 1 m/s 715 mmHg 89%
    19:00 +26°C° 0.7 mm 1 m/s 715 mmHg 93%
    20:00 +24°C° 0.3 mm 0 m/s 716 mmHg 93%
    21:00 +24°C° 0.3 mm 0 m/s 716 mmHg 92%
    22:00 +23°C° 0.3 mm 0 m/s 717 mmHg 91%
    23:00 +25°C° 0.6 mm 1 m/s 717 mmHg 92%

    Demain, 19 Novembre, Lundi

    Heure Température Précipitation Vent Pression Humidité
    00:00 +25°C° 0.6 mm 1 m/s 717 mmHg 92%
    01:00 +25°C° 0.6 mm 1 m/s 716 mmHg 92%
    02:00 +23°C° 0.7 mm 0 m/s 716 mmHg 92%
    03:00 +23°C° 0.7 mm 0 m/s 716 mmHg 92%
    04:00 +23°C° 0.7 mm 0 m/s 716 mmHg 92%
    05:00 +23°C° 0.3 mm 0 m/s 716 mmHg 91%
    06:00 +23°C° 0.3 mm 0 m/s 717 mmHg 90%
    07:00 +24°C° 0.3 mm 0 m/s 717 mmHg 89%
    08:00 +27°C° 0.3 mm 1 m/s 718 mmHg 85%
    09:00 +28°C° 0.3 mm 1 m/s 718 mmHg 80%
    10:00 +29°C° 0.3 mm 1 m/s 718 mmHg 76%
    11:00 +30°C° 0.2 mm 1 m/s 717 mmHg 72%
    12:00 +31°C° 0.2 mm 2 m/s 717 mmHg 69%
    13:00 +31°C° 0.2 mm 2 m/s 716 mmHg 66%
    14:00 +31°C° 0.1 mm 2 m/s 715 mmHg 69%
    15:00 +30°C° 0.1 mm 1 m/s 714 mmHg 72%
    16:00 +30°C° 0.1 mm 1 m/s 714 mmHg 76%
    17:00 +29°C° 0.1 mm 1 m/s 714 mmHg 80%
    18:00 +28°C° 0.1 mm 1 m/s 715 mmHg 84%
    19:00 +26°C° 0.1 mm 1 m/s 715 mmHg 88%
    20:00 +26°C° 0.5 mm 1 m/s 716 mmHg 88%
    21:00 +26°C° 0.5 mm 1 m/s 717 mmHg 87%
    22:00 +26°C° 0.5 mm 1 m/s 717 mmHg 87%
    23:00 +25°C° 0.3 mm 1 m/s 717 mmHg 86%

    Après-demain, 20 Novembre, Mardi

    Heure Température Précipitation Vent Pression Humidité
    00:00 +25°C° 0.3 mm 1 m/s 717 mmHg 85%
    01:00 +25°C° 0.3 mm 1 m/s 716 mmHg 84%
    02:00 +24°C° 0.3 mm 1 m/s 716 mmHg 84%
    03:00 +24°C° 0.3 mm 1 m/s 716 mmHg 84%
    04:00 +24°C° 0.3 mm 1 m/s 716 mmHg 84%
    05:00 +24°C° 0.5 mm 1 m/s 716 mmHg 82%
    06:00 +23°C° 0.5 mm 0 m/s 717 mmHg 80%
    07:00 +24°C° 0.5 mm 0 m/s 717 mmHg 78%
    08:00 +27°C° 0.1 mm 1 m/s 718 mmHg 73%
    09:00 +29°C° 0.1 mm 1 m/s 718 mmHg 69%
    10:00 +31°C° 0.1 mm 1 m/s 719 mmHg 64%
    11:00 +31°C° 0.2 mm 2 m/s 718 mmHg 64%
    12:00 +32°C° 0.2 mm 2 m/s 717 mmHg 64%
    13:00 +32°C° 0.2 mm 2 m/s 716 mmHg 63%
    14:00 +31°C° 0.2 mm 2 m/s 715 mmHg 68%
    15:00 +31°C° 0.2 mm 1 m/s 715 mmHg 72%
    16:00 +30°C° 0.2 mm 1 m/s 714 mmHg 77%
    17:00 +29°C° 0.3 mm 1 m/s 715 mmHg 82%
    18:00 +28°C° 0.3 mm 1 m/s 715 mmHg 87%
    19:00 +24°C° 0.3 mm 0 m/s 716 mmHg 91%
    20:00 +26°C° 0.3 mm 1 m/s 716 mmHg 91%
    21:00 +26°C° 0.3 mm 1 m/s 717 mmHg 91%
    22:00 +26°C° 0.3 mm 1 m/s 718 mmHg 90%
    23:00 +25°C° 0.4 mm 1 m/s 717 mmHg 90%

    21 Novembre, Mercredi

    Heure Température Précipitation Vent Pression Humidité
    00:00 +25°C° 0.4 mm 1 m/s 717 mmHg 90%
    01:00 +25°C° 0.4 mm 1 m/s 717 mmHg 89%
    02:00 +25°C° 0.6 mm 1 m/s 716 mmHg 89%
    03:00 +25°C° 0.6 mm 1 m/s 716 mmHg 89%
    04:00 +24°C° 0.6 mm 1 m/s 716 mmHg 88%
    05:00 +23°C° 0.2 mm 0 m/s 717 mmHg 87%
    06:00 +23°C° 0.2 mm 0 m/s 718 mmHg 85%
    07:00 +24°C° 0.2 mm 0 m/s 718 mmHg 83%
    08:00 +28°C° 0.1 mm 1 m/s 719 mmHg 78%
    09:00 +29°C° 0.1 mm 1 m/s 719 mmHg 72%
    10:00 +31°C° 0.1 mm 1 m/s 719 mmHg 67%
    11:00 +31°C° 0.2 mm 1 m/s 718 mmHg 67%
    12:00 +31°C° 0.2 mm 2 m/s 717 mmHg 67%
    13:00 +31°C° 0.2 mm 2 m/s 716 mmHg 67%
    14:00 +31°C° 0.3 mm 2 m/s 715 mmHg 71%
    15:00 +30°C° 0.3 mm 2 m/s 715 mmHg 75%
    16:00 +30°C° 0.3 mm 1 m/s 714 mmHg 79%
    17:00 +28°C° 0.4 mm 1 m/s 715 mmHg 84%
    18:00 +27°C° 0.4 mm 1 m/s 715 mmHg 89%
    19:00 +24°C° 0.4 mm 0 m/s 716 mmHg 93%
    20:00 +26°C° 0.1 mm 1 m/s 716 mmHg 92%
    21:00 +26°C° 0.1 mm 1 m/s 717 mmHg 91%
    22:00 +26°C° 0.1 mm 1 m/s 717 mmHg 91%
    23:00 +25°C° 0.2 mm 1 m/s 717 mmHg 90%

    22 Novembre, Jeudi

    Heure Température Précipitation Vent Pression Humidité
    00:00 +25°C° 0.2 mm 1 m/s 716 mmHg 89%
    01:00 +25°C° 0.2 mm 1 m/s 716 mmHg 88%
    02:00 +23°C° 0.4 mm 0 m/s 716 mmHg 89%
    03:00 +23°C° 0.4 mm 0 m/s 716 mmHg 89%
    04:00 +23°C° 0.4 mm 0 m/s 716 mmHg 90%
    05:00 +23°C° 0.2 mm 0 m/s 716 mmHg 89%
    06:00 +24°C° 0.2 mm 0 m/s 717 mmHg 88%
    07:00 +24°C° 0.2 mm 0 m/s 717 mmHg 87%
    08:00 +25°C° 0.2 mm 0 m/s 718 mmHg 82%
    09:00 +29°C° 0.2 mm 1 m/s 718 mmHg 78%
    10:00 +30°C° 0.2 mm 1 m/s 718 mmHg 73%
    11:00 +30°C° 0.2 mm 1 m/s 717 mmHg 72%
    12:00 +31°C° 0.2 mm 1 m/s 716 mmHg 71%
    13:00 +31°C° 0.2 mm 2 m/s 715 mmHg 69%
    14:00 +30°C° 0.7 mm 1 m/s 715 mmHg 73%
    15:00 +30°C° 0.7 mm 1 m/s 714 mmHg 77%
    16:00 +29°C° 0.7 mm 1 m/s 714 mmHg 80%
    17:00 +28°C° 1.5 mm 1 m/s 715 mmHg 83%
    18:00 +27°C° 1.5 mm 1 m/s 715 mmHg 87%
    19:00 +25°C° 1.5 mm 0 m/s 716 mmHg 90%
    20:00 +26°C° 1.8 mm 1 m/s 716 mmHg 91%
    21:00 +26°C° 1.8 mm 1 m/s 716 mmHg 92%
    22:00 +26°C° 1.8 mm 1 m/s 717 mmHg 93%
    23:00 +25°C° 1.2 mm 1 m/s 716 mmHg 94%

    23 Novembre, Vendredi

    Heure Température Précipitation Vent Pression Humidité
    00:00 +25°C° 1.2 mm 1 m/s 716 mmHg 94%
    01:00 +25°C° 1.2 mm 1 m/s 715 mmHg 95%
    02:00 +25°C° 0.7 mm 1 m/s 715 mmHg 94%
    03:00 +25°C° 0.7 mm 1 m/s 715 mmHg 94%
    04:00 +25°C° 0.7 mm 1 m/s 715 mmHg 94%
    05:00 +25°C° 0.4 mm 1 m/s 716 mmHg 93%
    06:00 +25°C° 0.4 mm 1 m/s 716 mmHg 92%
    07:00 +26°C° 0.4 mm 1 m/s 717 mmHg 91%
    08:00 +27°C° 0.5 mm 1 m/s 717 mmHg 87%
    09:00 +29°C° 0.6 mm 1 m/s 717 mmHg 83%
    10:00 +30°C° 0.6 mm 1 m/s 717 mmHg 79%
    11:00 +30°C° 0.6 mm 1 m/s 716 mmHg 79%
    12:00 +30°C° 0.6 mm 1 m/s 715 mmHg 79%
    13:00 +30°C° 0.6 mm 1 m/s 714 mmHg 79%
    14:00 +30°C° 0.9 mm 1 m/s 714 mmHg 81%
    15:00 +30°C° 0.9 mm 1 m/s 713 mmHg 83%
    16:00 +30°C° 0.9 mm 1 m/s 713 mmHg 85%
    17:00 +28°C° 1.4 mm 1 m/s 713 mmHg 88%
    18:00 +27°C° 1.4 mm 1 m/s 714 mmHg 91%
    19:00 +26°C° 1.4 mm 1 m/s 714 mmHg 95%
    20:00 +26°C° 1.4 mm 1 m/s 715 mmHg 95%
    21:00 +26°C° 1.4 mm 1 m/s 715 mmHg 94%
    22:00 +25°C° 1.4 mm 1 m/s 716 mmHg 94%
    23:00 +25°C° 1.3 mm 1 m/s 716 mmHg 94%
    Voir plus